When you browse on this site, cookies collect data to enhance your experience and personalize the content and advertising you see.
Visit our Privacy Policy to learn more. By continuing to use the site, you agree to this use of cookies and data.
  • In Switzerland
  • List of Countries
  • For 7 days
  • Water Temperature
  • Satellite Maps
  • Weather Map
  • Weather Widgets
  • user-avatar
    Login

    Hourly Weather Nairobi

    Today, 27 June, Thursday

    Time Temperature Precipitation Wind Pressure Humidity
    00:00 +18°C° 0 mm 1 mps 624 mmHg 86%
    01:00 +16°C° 0 mm 1 mps 623 mmHg 87%
    02:00 +15°C° 0 mm 0 mps 623 mmHg 87%
    03:00 +16°C° 0 mm 1 mps 623 mmHg 89%
    04:00 +15°C° 0 mm 1 mps 623 mmHg 90%
    05:00 +15°C° 0 mm 1 mps 623 mmHg 91%
    06:00 +16°C° 0 mm 1 mps 624 mmHg 88%
    07:00 +18°C° 0 mm 1 mps 624 mmHg 84%
    08:00 +19°C° 0 mm 1 mps 625 mmHg 81%
    09:00 +20°C° 0 mm 1 mps 625 mmHg 77%
    10:00 +21°C° 0 mm 1 mps 625 mmHg 74%
    11:00 +21°C° 0 mm 1 mps 624 mmHg 71%
    12:00 +21°C° 0.1 mm 2 mps 624 mmHg 70%
    13:00 +21°C° 0.1 mm 2 mps 624 mmHg 70%
    14:00 +21°C° 0.1 mm 2 mps 623 mmHg 69%
    15:00 +21°C° 0.2 mm 2 mps 623 mmHg 72%
    16:00 +20°C° 0.2 mm 2 mps 623 mmHg 75%
    17:00 +20°C° 0.2 mm 2 mps 623 mmHg 77%
    18:00 +19°C° 0.2 mm 2 mps 623 mmHg 81%
    19:00 +18°C° 0.2 mm 2 mps 623 mmHg 86%
    20:00 +17°C° 0.2 mm 2 mps 623 mmHg 90%
    21:00 +18°C° 0 mm 1 mps 623 mmHg 90%
    22:00 +16°C° 0 mm 1 mps 623 mmHg 91%
    23:00 +15°C° 0 mm 0 mps 623 mmHg 91%

    Tomorrow, 28 June, Friday

    Time Temperature Precipitation Wind Pressure Humidity
    00:00 +14°C° 0 mm 0 mps 623 mmHg 92%
    01:00 +14°C° 0 mm 0 mps 622 mmHg 92%
    02:00 +14°C° 0 mm 0 mps 622 mmHg 93%
    03:00 +14°C° 0 mm 0 mps 622 mmHg 93%
    04:00 +14°C° 0 mm 1 mps 622 mmHg 93%
    05:00 +14°C° 0 mm 1 mps 622 mmHg 93%
    06:00 +16°C° 0 mm 1 mps 623 mmHg 89%
    07:00 +18°C° 0 mm 1 mps 624 mmHg 84%
    08:00 +19°C° 0 mm 2 mps 624 mmHg 80%
    09:00 +20°C° 0 mm 2 mps 625 mmHg 75%
    10:00 +21°C° 0 mm 2 mps 625 mmHg 70%
    11:00 +24°C° 0 mm 2 mps 625 mmHg 65%
    12:00 +24°C° 0.3 mm 2 mps 624 mmHg 65%
    13:00 +24°C° 0.3 mm 3 mps 624 mmHg 65%
    14:00 +24°C° 0.3 mm 3 mps 623 mmHg 64%
    15:00 +23°C° 0.7 mm 2 mps 623 mmHg 68%
    16:00 +23°C° 0.7 mm 2 mps 623 mmHg 72%
    17:00 +22°C° 0.7 mm 1 mps 622 mmHg 75%
    18:00 +20°C° 0.3 mm 2 mps 623 mmHg 78%
    19:00 +19°C° 0.3 mm 2 mps 623 mmHg 81%
    20:00 +18°C° 0.3 mm 2 mps 623 mmHg 84%
    21:00 +17°C° 0 mm 2 mps 623 mmHg 85%
    22:00 +17°C° 0 mm 2 mps 623 mmHg 86%
    23:00 +16°C° 0 mm 1 mps 623 mmHg 87%

    Day after tomorrow, 29 June, Saturday

    Time Temperature Precipitation Wind Pressure Humidity
    00:00 +16°C° 0 mm 1 mps 623 mmHg 88%
    01:00 +15°C° 0 mm 1 mps 622 mmHg 90%
    02:00 +14°C° 0 mm 0 mps 622 mmHg 91%
    03:00 +13°C° 0 mm 0 mps 622 mmHg 92%
    04:00 +13°C° 0 mm 0 mps 622 mmHg 92%
    05:00 +13°C° 0 mm 0 mps 622 mmHg 93%
    06:00 +15°C° 0 mm 1 mps 623 mmHg 89%
    07:00 +16°C° 0 mm 1 mps 624 mmHg 85%
    08:00 +19°C° 0 mm 1 mps 625 mmHg 82%
    09:00 +19°C° 0 mm 2 mps 625 mmHg 76%
    10:00 +21°C° 0 mm 2 mps 625 mmHg 71%
    11:00 +22°C° 0 mm 3 mps 625 mmHg 65%
    12:00 +22°C° 0.2 mm 3 mps 624 mmHg 65%
    13:00 +22°C° 0.2 mm 3 mps 624 mmHg 64%
    14:00 +22°C° 0.2 mm 3 mps 623 mmHg 64%
    15:00 +22°C° 0.2 mm 3 mps 623 mmHg 66%
    16:00 +21°C° 0.2 mm 2 mps 623 mmHg 68%
    17:00 +21°C° 0.2 mm 2 mps 623 mmHg 71%
    18:00 +20°C° 0 mm 2 mps 623 mmHg 72%
    19:00 +19°C° 0 mm 2 mps 623 mmHg 74%
    20:00 +18°C° 0 mm 2 mps 624 mmHg 76%
    21:00 +17°C° 0 mm 2 mps 624 mmHg 76%
    22:00 +17°C° 0 mm 2 mps 624 mmHg 77%
    23:00 +16°C° 0 mm 2 mps 624 mmHg 77%

    30 June, Sunday

    Time Temperature Precipitation Wind Pressure Humidity
    00:00 +16°C° 0 mm 1 mps 623 mmHg 79%
    01:00 +15°C° 0 mm 1 mps 623 mmHg 80%
    02:00 +14°C° 0 mm 1 mps 622 mmHg 82%
    03:00 +14°C° 0 mm 1 mps 622 mmHg 83%
    04:00 +14°C° 0 mm 1 mps 623 mmHg 84%
    05:00 +14°C° 0 mm 1 mps 623 mmHg 85%
    06:00 +15°C° 0 mm 1 mps 624 mmHg 79%
    07:00 +16°C° 0 mm 1 mps 625 mmHg 72%
    08:00 +19°C° 0 mm 1 mps 626 mmHg 66%
    09:00 +19°C° 0 mm 2 mps 626 mmHg 62%
    10:00 +21°C° 0 mm 2 mps 626 mmHg 58%
    11:00 +22°C° 0 mm 3 mps 626 mmHg 55%
    12:00 +24°C° 0 mm 3 mps 625 mmHg 54%
    13:00 +24°C° 0 mm 3 mps 625 mmHg 54%
    14:00 +24°C° 0 mm 3 mps 624 mmHg 53%
    15:00 +24°C° 0 mm 3 mps 624 mmHg 57%
    16:00 +22°C° 0 mm 3 mps 624 mmHg 60%
    17:00 +21°C° 0 mm 2 mps 623 mmHg 63%
    18:00 +20°C° 0 mm 2 mps 624 mmHg 64%
    19:00 +19°C° 0 mm 2 mps 624 mmHg 66%
    20:00 +19°C° 0 mm 1 mps 624 mmHg 67%
    21:00 +18°C° 0 mm 1 mps 624 mmHg 71%
    22:00 +16°C° 0 mm 1 mps 624 mmHg 76%
    23:00 +16°C° 0 mm 1 mps 624 mmHg 80%

    1 July, Monday

    Time Temperature Precipitation Wind Pressure Humidity
    00:00 +16°C° 0 mm 1 mps 623 mmHg 84%
    01:00 +15°C° 0 mm 1 mps 623 mmHg 87%
    02:00 +15°C° 0 mm 1 mps 623 mmHg 90%
    03:00 +15°C° 0 mm 1 mps 623 mmHg 90%
    04:00 +15°C° 0 mm 1 mps 623 mmHg 91%
    05:00 +15°C° 0 mm 1 mps 623 mmHg 91%
    06:00 +16°C° 0 mm 1 mps 624 mmHg 85%
    07:00 +18°C° 0 mm 1 mps 624 mmHg 79%
    08:00 +19°C° 0 mm 2 mps 625 mmHg 74%
    09:00 +20°C° 0 mm 2 mps 625 mmHg 68%
    10:00 +22°C° 0 mm 3 mps 626 mmHg 63%
    11:00 +24°C° 0 mm 3 mps 626 mmHg 57%
    12:00 +24°C° 0.2 mm 3 mps 625 mmHg 57%
    13:00 +23°C° 0.2 mm 4 mps 624 mmHg 58%
    14:00 +23°C° 0.2 mm 4 mps 624 mmHg 58%
    15:00 +24°C° 0.2 mm 3 mps 624 mmHg 61%
    16:00 +23°C° 0.2 mm 2 mps 623 mmHg 64%
    17:00 +21°C° 0.2 mm 2 mps 623 mmHg 67%
    18:00 +21°C° 0.1 mm 2 mps 623 mmHg 68%
    19:00 +20°C° 0.1 mm 2 mps 624 mmHg 70%
    20:00 +19°C° 0.1 mm 2 mps 624 mmHg 72%
    21:00 +18°C° 0 mm 2 mps 624 mmHg 75%
    22:00 +18°C° 0 mm 2 mps 624 mmHg 78%
    23:00 +17°C° 0 mm 2 mps 624 mmHg 81%

    2 July, Tuesday

    Time Temperature Precipitation Wind Pressure Humidity
    00:00 +17°C° 0 mm 2 mps 623 mmHg 84%
    01:00 +16°C° 0 mm 1 mps 623 mmHg 88%
    02:00 +16°C° 0 mm 1 mps 622 mmHg 91%
    03:00 +16°C° 0 mm 1 mps 623 mmHg 91%
    04:00 +16°C° 0 mm 1 mps 623 mmHg 91%
    05:00 +16°C° 0 mm 1 mps 623 mmHg 91%
    06:00 +16°C° 0 mm 1 mps 624 mmHg 88%
    07:00 +18°C° 0 mm 1 mps 624 mmHg 85%
    08:00 +19°C° 0 mm 1 mps 625 mmHg 81%
    09:00 +20°C° 0 mm 1 mps 625 mmHg 74%
    10:00 +21°C° 0 mm 2 mps 625 mmHg 67%
    11:00 +23°C° 0 mm 2 mps 625 mmHg 60%
    12:00 +24°C° 0.3 mm 2 mps 625 mmHg 59%
    13:00 +24°C° 0.3 mm 3 mps 624 mmHg 58%
    14:00 +25°C° 0.3 mm 3 mps 624 mmHg 57%
    15:00 +24°C° 0.6 mm 3 mps 623 mmHg 62%
    16:00 +22°C° 0.6 mm 3 mps 623 mmHg 68%
    17:00 +21°C° 0.6 mm 2 mps 623 mmHg 73%
    18:00 +20°C° 0.6 mm 2 mps 623 mmHg 75%
    19:00 +19°C° 0.6 mm 3 mps 623 mmHg 77%
    20:00 +19°C° 0.6 mm 3 mps 624 mmHg 80%
    21:00 +18°C° 0.2 mm 3 mps 624 mmHg 82%
    22:00 +18°C° 0.2 mm 3 mps 624 mmHg 85%
    23:00 +17°C° 0.2 mm 3 mps 624 mmHg 87%
    Show more